San Luis Obispo, CA

10:08 AM PDT on July 28, 2017 (GMT -0700)
San Luis Obispo County-McChesney

Weather History for KSBP - January, 2013

Change the Weather History Date:

Tuesday, January 22, 2013

  Actual Average Record
Temperature  
Mean Temperature 56 °F -  
Max Temperature 77 °F 63 °F 82 °F (2014)
Min Temperature 34 °F 42 °F 30 °F (2007)
Degree Days  
Heating Degree Days 10    
Growing Degree Days 6 (Base 50)    
Moisture  
Dew Point 34 °F    
Average Humidity 56    
Maximum Humidity 85    
Minimum Humidity 20    
Precipitation  
Precipitation 0.00 in - - ()
Sea Level Pressure  
Sea Level Pressure 30.06 in    
Wind  
Wind Speed 1 mph (SSE)    
Max Wind Speed 7 mph    
Max Gust Speed -    
Visibility 10 miles    
Events      
Averages and records for this station are not official NWS values.
T = Trace of Precipitation, MM = Missing Value Source: NWS Daily Summary

Daily Weather History Graph

Daily Weather History Graph

Search for Another Location

Airport or City:

Trip Planner

Search our weather history database for the weather conditions in past years. The results will help you decide how hot, cold, wet, or windy it might be!

Date:

Astronomy

Jan. 22, 2013 Rise Set
Actual Time 7:07 AM PST 5:21 PM PST
Civil Twilight 6:40 AM PST 5:48 PM PST
Nautical Twilight 6:09 AM PST 6:19 PM PST
Astronomical Twilight 5:39 AM PST 6:49 PM PST
Moon 1:49 PM PST (1/22) 3:32 AM PST (1/22)
Length of Visible Light 11h 07m
Length of Day
10h 13m
Waxing Gibbous, 83% of the Moon is Illuminated
Jan 22
Waxing Gibbous
Jan 26
Full
Feb 3
Last Quarter
Feb 9
New
Feb 17
First Quarter

Hourly Weather History & Observations

Time (PST) Temp. Windchill Dew Point Humidity Pressure Visibility Wind Dir Wind Speed Gust Speed Precip Events Conditions
12:56 AM 42.1 °F - 34.0 °F 73% 30.07 in 10.0 mi Calm Calm - N/A   Clear
1:56 AM 39.9 °F 36.7 °F 33.1 °F 77% 30.07 in 10.0 mi SE 4.6 mph - N/A   Clear
2:56 AM 37.9 °F - 32.0 °F 79% 30.06 in 10.0 mi Calm Calm - N/A   Clear
3:56 AM 39.0 °F - 32.0 °F 76% 30.05 in 10.0 mi Calm Calm - N/A   Clear
4:56 AM 37.0 °F 33.3 °F 30.9 °F 79% 30.06 in 10.0 mi SE 4.6 mph - N/A   Clear
5:56 AM 36.0 °F - 30.0 °F 79% 30.08 in 10.0 mi Calm Calm - N/A   Clear
6:56 AM 34.0 °F - 30.0 °F 85% 30.09 in 10.0 mi Calm Calm - N/A   Clear
7:56 AM 37.9 °F - 30.9 °F 76% 30.09 in 10.0 mi Calm Calm - N/A   Clear
8:56 AM 45.0 °F 43.5 °F 34.0 °F 65% 30.08 in 10.0 mi East 3.5 mph - N/A   Clear
9:56 AM 59.0 °F - 34.0 °F 39% 30.08 in 10.0 mi Calm Calm - N/A   Clear
10:56 AM 66.9 °F - 34.0 °F 30% 30.08 in 10.0 mi Calm Calm - N/A   Clear
11:56 AM 73.9 °F - 32.0 °F 21% 30.05 in 10.0 mi Calm Calm - N/A   Clear
12:56 PM 77.0 °F - 33.1 °F 20% 30.03 in 10.0 mi Calm Calm - N/A   Clear
1:56 PM 73.0 °F - 28.9 °F 20% 30.04 in 10.0 mi WSW 6.9 mph - N/A   Clear
2:56 PM 69.1 °F - 27.0 °F 21% 30.03 in 10.0 mi WSW 3.5 mph - N/A   Clear
3:56 PM 66.9 °F - 37.0 °F 33% 30.03 in 10.0 mi Variable 4.6 mph - N/A   Clear
4:56 PM 64.0 °F - 36.0 °F 35% 30.04 in 10.0 mi Calm Calm - N/A   Clear
5:56 PM 57.0 °F - 37.9 °F 49% 30.04 in 10.0 mi Calm Calm - N/A   Clear
6:56 PM 55.0 °F - 39.0 °F 55% 30.05 in 10.0 mi Calm Calm - N/A   Clear
7:56 PM 53.1 °F - 39.0 °F 59% 30.06 in 10.0 mi Calm Calm - N/A   Clear
8:56 PM 50.0 °F - 39.0 °F 66% 30.06 in 10.0 mi Calm Calm - N/A   Clear
9:56 PM 48.9 °F - 37.9 °F 66% 30.06 in 10.0 mi Calm Calm - N/A   Clear
10:56 PM 48.0 °F - 37.0 °F 66% 30.06 in 10.0 mi Calm Calm - N/A   Clear
11:56 PM 46.9 °F - 37.0 °F 68% 30.05 in 10.0 mi Calm Calm - N/A   Clear